Satellite-Ground Cal/Val Site Overpasses Predictions

Prediction of Satellite NPP Overpassing Cal/Val Site: Antarctic Dome C

Ground Cal/Val Site Location: Latitude: -75.10, Longitude: 123.35; Satellite-Ground Site NADIR distance within 100 km.

Table of predicted overpasses for the next 14.0 days since TLE Epoch: 4/20/2024
Interval Starting Time Ending Time Minimum Distance Time Minimum Distance (km)
1 04/22/2024 14:55:44 04/22/2024 14:56:13 04/22/2024 14:55:58 24.47
2 04/23/2024 14:37:02 04/23/2024 14:37:18 04/23/2024 14:37:10 82.95
3 04/24/2024 07:38:34 04/24/2024 07:39:01 04/24/2024 07:38:48 41.01
4 04/25/2024 07:19:48 04/25/2024 07:20:09 04/25/2024 07:19:58 68.85
5 04/27/2024 15:02:03 04/27/2024 15:02:26 04/27/2024 15:02:14 61.47
6 04/28/2024 14:43:11 04/28/2024 14:43:37 04/28/2024 14:43:24 47.94
7 04/29/2024 07:44:53 04/29/2024 07:45:12 04/29/2024 07:45:03 76.11
8 04/30/2024 07:25:59 04/30/2024 07:26:27 04/30/2024 07:26:13 31.66
9 05/02/2024 15:08:27 05/02/2024 15:08:29 05/02/2024 15:08:28 99.17
